Total_Precipitation_Accumulation
0.06 0.07 0.11 0.12 0.18 0.22 0.21 0.31 0.42 0.40 0.33 0.42 0.63 0.90 1.02 1.02 1.11 1.36 1.50 1.57 1.56 1.64 1.98 2.47 3.08 3.73 4.55 5.70 6.39 6.55 6.37 5.72 5.22 4.81 4.57 4.30 4.10 3.80 3.27 2.90 2.71 2.62 2.49 2.51
0.06 0.08 0.09 0.09 0.10 0.14 0.16 0.26 0.33 0.31 0.26 0.29 0.58 1.00 1.11 1.13 1.22 1.29 1.40 1.44 1.33 1.49 1.89 2.53 3.23 3.99 4.69 5.25 5.61 5.75 5.43 4.70 4.24 4.02 4.00 3.73 3.52 3.20 3.00 2.77 2.82 2.44 2.32 2.42
0.09 0.10 0.06 0.06 0.09 0.12 0.18 0.24 0.28 0.34 0.30 0.33 0.61 1.27 1.43 1.30 1.27 1.29 1.23 1.20 1.25 1.49 2.06 2.87 3.65 4.39 4.68 4.70 4.47 4.19 4.06 3.73 3.68 3.68 3.52 3.30 3.24 3.00 2.85 2.67 2.63 2.30 2.04 2.07
0.08 0.09 0.06 0.07 0.10 0.11 0.18 0.19 0.19 0.24 0.33 0.58 0.72 1.42 1.51 1.43 1.42 1.36 1.42 1.37 1.40 1.68 2.23 2.92 3.43 3.66 3.79 3.70 3.40 3.26 3.23 3.21 3.20 3.13 3.05 2.79 2.67 2.66 2.52 2.46 2.53 2.42 2.11 2.05
0.09 0.10 0.10 0.09 0.10 0.10 0.13 0.13 0.18 0.25 0.41 0.66 0.80 1.16 1.50 1.42 1.58 1.26 1.19 1.28 1.31 1.55 1.86 2.01 2.21 2.37 2.46 2.46 2.60 2.70 2.87 3.05 2.97 2.93 2.97 2.94 2.65 2.60 2.58 2.59 2.75 2.68 2.42 2.18
0.10 0.08 0.09 0.09 0.08 0.10 0.11 0.13 0.23 0.38 0.66 1.18 1.08 1.21 1.57 1.50 1.41 1.13 1.03 1.07 1.18 1.28 1.30 1.38 1.48 1.59 1.77 1.78 2.03 2.24 2.38 2.55 2.74 2.79 2.66 2.62 2.59 2.67 2.74 2.73 2.61 2.42 2.33 2.25
0.17 0.14 0.10 0.11 0.11 0.12 0.12 0.23 0.62 1.06 1.44 1.48 0.93 1.07 1.49 1.34 1.02 0.79 0.79 0.87 0.84 0.96 1.15 1.40 1.41 1.50 1.66 1.56 1.71 1.97 2.00 2.01 2.17 2.21 2.22 2.29 2.46 2.53 2.39 2.32 2.30 2.16 1.94 2.00
0.23 0.22 0.15 0.12 0.13 0.14 0.14 0.24 0.53 0.84 0.93 1.03 1.05 1.56 1.72 1.09 0.78 0.64 0.69 0.72 0.74 0.92 1.10 1.29 1.12 1.19 1.33 1.33 1.47 1.63 1.71 1.75 1.82 1.94 2.09 2.05 2.17 2.16 2.08 2.21 2.09 1.98 1.73 1.64
0.13 0.15 0.14 0.13 0.14 0.14 0.16 0.19 0.25 0.35 0.47 0.88 1.33 1.64 1.58 1.07 0.91 0.79 0.79 0.83 0.80 0.79 0.91 1.02 0.96 0.93 1.04 1.16 1.29 1.40 1.45 1.57 1.62 1.79 1.90 1.86 1.91 2.01 2.09 2.11 2.02 1.83 1.86 1.72
0.08 0.11 0.13 0.13 0.15 0.16 0.17 0.21 0.26 0.37 0.54 0.84 1.28 1.78 2.01 1.52 1.00 0.96 0.92 0.91 0.91 0.89 0.94 0.97 1.00 0.96 1.04 1.05 1.28 1.36 1.35 1.51 1.58 1.74 1.78 1.60 1.75 1.88 2.09 2.04 1.94 1.86 1.87 1.85
0.08 0.11 0.15 0.17 0.17 0.22 0.23 0.21 0.26 0.35 0.38 0.62 1.19 1.49 1.21 1.15 0.95 1.03 1.04 0.96 0.91 0.87 0.98 0.94 1.01 0.95 0.89 0.88 1.12 1.24 1.38 1.50 1.59 1.74 1.85 1.83 1.82 1.76 1.90 1.94 1.91 1.93 1.93 1.92
0.07 0.13 0.19 0.19 0.18 0.20 0.23 0.25 0.28 0.35 0.40 0.44 0.70 0.97 0.83 1.02 1.00 1.00 1.10 1.07 0.98 0.76 0.76 0.89 1.02 1.03 0.87 0.81 0.94 1.13 1.30 1.46 1.55 1.68 1.83 1.90 2.07 2.00 1.93 1.93 1.98 2.05 2.16 2.25
0.07 0.13 0.23 0.31 0.34 0.27 0.21 0.20 0.23 0.27 0.32 0.41 0.66 0.88 0.79 0.85 0.88 0.86 1.04 1.16 1.04 0.89 0.80 0.90 1.07 1.00 0.99 0.93 0.95 1.07 1.25 1.49 1.67 1.80 1.93 2.08 2.17 2.07 1.97 2.10 2.19 2.23 2.38 2.55
0.07 0.08 0.15 0.32 0.37 0.38 0.30 0.21 0.22 0.21 0.27 0.36 0.48 0.73 0.80 0.88 0.87 0.94 1.00 1.07 1.12 1.04 0.93 0.97 1.03 1.00 1.10 1.21 1.26 1.35 1.61 1.68 1.70 1.94 2.18 2.27 2.31 2.22 2.17 2.28 2.39 2.40 2.47 2.63
0.06 0.07 0.09 0.13 0.19 0.24 0.27 0.24 0.20 0.17 0.16 0.27 0.41 0.59 0.75 0.92 1.01 1.06 1.02 0.99 0.92 0.88 0.88 0.83 0.86 0.96 1.07 1.23 1.34 1.49 1.55 1.75 1.88 2.15 2.31 2.33 2.43 2.44 2.47 2.59 2.59 2.51 2.55 2.59
0.11 0.10 0.09 0.11 0.12 0.17 0.20 0.23 0.18 0.15 0.15 0.20 0.38 0.68 0.76 0.88 1.00 1.05 0.99 0.95 0.92 0.90 0.92 1.01 1.03 1.08 1.19 1.24 1.36 1.48 1.58 1.81 2.07 2.32 2.59 2.64 2.69 2.67 2.74 2.87 2.92 2.83 2.83 2.97
0.16 0.15 0.17 0.18 0.19 0.19 0.24 0.23 0.21 0.23 0.22 0.28 0.44 0.65 0.76 0.87 0.99 1.16 1.14 1.02 1.00 1.03 1.07 1.17 1.28 1.27 1.28 1.34 1.47 1.64 1.79 2.01 2.21 2.37 2.61 2.79 2.88 2.93 3.01 3.08 3.08 3.03 3.14 3.33
0.22 0.24 0.27 0.24 0.29 0.35 0.30 0.28 0.28 0.33 0.36 0.41 0.55 0.65 0.89 1.09 1.20 1.45 1.55 1.33 1.20 1.11 1.11 1.22 1.43 1.54 1.51 1.51 1.63 1.88 2.06 2.32 2.56 2.68 2.76 2.86 2.95 3.02 3.08 3.15 3.04 3.08 3.22 3.28
0.24 0.30 0.36 0.34 0.38 0.38 0.41 0.44 0.47 0.55 0.69 0.68 0.80 0.95 1.15 1.28 1.31 1.46 1.36 1.23 1.17 1.19 1.31 1.43 1.58 1.66 1.72 1.76 1.89 2.02 2.18 2.42 2.68 2.85 2.82 2.79 2.90 3.04 3.10 3.11 3.10 3.15 3.20 3.09
0.36 0.37 0.49 0.46 0.52 0.58 0.61 0.62 0.60 0.70 1.28 1.26 1.26 1.26 1.33 1.41 1.70 1.68 1.36 1.21 1.21 1.26 1.33 1.46 1.59 1.60 1.68 1.79 1.80 1.90 2.15 2.42 2.61 2.79 2.86 2.87 2.99 3.07 3.09 3.18 3.23 3.18 3.13 3.04
0.59 0.62 0.61 0.63 0.75 0.75 0.65 0.62 0.68 1.16 1.63 1.46 1.43 1.44 1.44 1.65 1.74 1.63 1.45 1.40 1.35 1.37 1.47 1.50 1.57 1.57 1.57 1.71 1.79 1.93 2.07 2.23 2.44 2.68 2.90 3.12 3.25 3.28 3.25 3.28 3.17 3.10 3.03 3.05
0.76 0.84 0.86 0.87 1.16 1.29 0.87 0.73 1.07 1.46 1.30 1.44 1.60 1.56 1.56 1.60 1.54 1.50 1.47 1.48 1.45 1.45 1.51 1.52 1.56 1.66 1.74 1.88 2.00 2.05 1.99 2.10 2.32 2.44 2.66 2.82 3.01 3.11 3.09 3.16 3.10 3.16 3.11 2.99
1.01 1.04 1.13 1.28 1.45 1.30 1.07 1.10 1.28 1.33 1.41 1.46 1.63 1.74 1.67 1.75 1.70 1.52 1.53 1.49 1.62 1.72 1.74 1.69 1.59 1.68 1.88 1.98 2.09 2.17 2.07 2.01 2.09 2.24 2.44 2.66 2.84 3.11 3.24 3.28 3.22 3.12 3.03 2.83
1.27 1.03 1.19 1.56 1.60 1.46 1.39 1.34 1.33 1.37 1.44 1.50 1.62 1.76 1.84 1.76 1.63 1.58 1.54 1.44 1.39 1.47 1.52 1.67 1.65 1.71 2.07 2.05 1.99 2.03 2.07 2.06 2.13 2.24 2.34 2.51 2.65 2.85 3.11 3.20 3.12 2.95 2.69 2.53
1.46 1.48 1.52 1.80 1.86 1.62 1.55 1.47 1.52 1.51 1.51 1.52 1.58 1.68 1.77 1.66 1.56 1.57 1.63 1.48 1.40 1.44 1.43 1.44 1.54 1.61 1.73 1.83 1.86 1.86 1.93 2.03 2.07 2.11 2.13 2.17 2.37 2.57 2.75 2.79 2.70 2.55 2.42 2.49
1.34 1.65 1.94 2.12 1.90 1.87 1.87 1.71 1.69 1.78 1.80 1.85 1.81 1.95 1.92 1.70 1.64 1.55 1.49 1.42 1.32 1.28 1.41 1.46 1.43 1.46 1.55 1.63 1.75 1.83 1.97 2.12 2.19 2.14 2.09 2.02 1.97 2.08 2.36 2.64 2.70 2.60 2.39 2.41